Powrót do katalogu

OPS 4682 DEB

AktywnyPO
NORAD 14048·DEBRIS·🇺🇸 United States

Wystrzelony Apr 3, 1965 z Vandenberg Space Force Base

Loading…

Następne Przeloty (najbliższe 24 godziny)

TLE

ŚwieżeSource: Space-Track

Epoka: Sep 14, 2026, 07:35 UTC

1 14048U 65027K   26257.31624339  .00000409  00000-0  13476-2 0  9996
2 14048  90.2537  16.8555 0016023  49.8496 337.8929 12.99262714 65282

Śledź OPS 4682 DEB w czasie rzeczywistym z AllMySat

Download on the App Store